QPF
0.00 0.00 0.00 0.01 0.01 0.01 0.01 0.01 0.01 0.00 0.00 0.00 0.00 0.00 0.01 0.01 0.01 0.02 0.02 0.03 0.04 0.06 0.08 0.08 0.11 0.16 0.18 0.20 0.27 0.33 0.36 0.38 0.46 0.49 0.40 0.29 0.19 0.15 0.12 0.09 0.06 0.03 0.03
0.01 0.01 0.00 0.01 0.00 0.00 0.00 0.00 0.00 0.00 0.00 0.00 0.00 0.00 0.00 0.00 0.00 0.00 0.00 0.01 0.02 0.02 0.03 0.03 0.04 0.06 0.07 0.09 0.12 0.16 0.19 0.23 0.34 0.37 0.38 0.30 0.21 0.16 0.13 0.10 0.05 0.03 0.03
0.01 0.01 0.01 0.01 0.00 0.00 0.00 0.00 0.00 0.00 0.00 0.00 0.00 0.00 0.00 0.00 0.00 0.00 0.00 0.00 0.00 0.00 0.01 0.01 0.02 0.02 0.03 0.03 0.04 0.08 0.12 0.13 0.18 0.22 0.26 0.25 0.20 0.15 0.10 0.06 0.04 0.04 0.04
0.01 0.01 0.01 0.01 0.00 0.00 0.00 0.00 0.00 0.00 0.00 0.00 0.00 0.00 0.00 0.00 0.00 0.00 0.00 0.00 0.00 0.00 0.00 0.00 0.00 0.01 0.01 0.02 0.02 0.03 0.05 0.07 0.09 0.12 0.13 0.13 0.14 0.14 0.11 0.07 0.05 0.05 0.05
0.01 0.02 0.02 0.02 0.01 0.00 0.00 0.00 0.00 0.00 0.00 0.00 0.00 0.01 0.00 0.00 0.00 0.00 0.00 0.00 0.00 0.00 0.00 0.00 0.00 0.00 0.00 0.01 0.01 0.02 0.03 0.04 0.06 0.07 0.07 0.08 0.08 0.09 0.09 0.07 0.07 0.07 0.04
0.03 0.04 0.06 0.04 0.02 0.01 0.01 0.00 0.00 0.00 0.01 0.01 0.01 0.01 0.01 0.01 0.01 0.00 0.00 0.00 0.00 0.00 0.00 0.00 0.00 0.00 0.00 0.00 0.01 0.01 0.02 0.03 0.03 0.05 0.06 0.07 0.06 0.06 0.07 0.06 0.07 0.08 0.07
0.04 0.05 0.05 0.04 0.03 0.02 0.01 0.01 0.01 0.02 0.01 0.01 0.01 0.01 0.01 0.01 0.01 0.00 0.00 0.00 0.00 0.00 0.00 0.00 0.00 0.00 0.00 0.00 0.01 0.01 0.01 0.02 0.03 0.04 0.05 0.05 0.06 0.07 0.08 0.08 0.08 0.09 0.09
0.03 0.04 0.04 0.04 0.04 0.03 0.02 0.01 0.01 0.01 0.01 0.01 0.01 0.01 0.01 0.01 0.01 0.01 0.00 0.00 0.00 0.00 0.00 0.00 0.00 0.00 0.00 0.00 0.01 0.01 0.01 0.02 0.03 0.03 0.04 0.05 0.05 0.06 0.07 0.07 0.09 0.09 0.08
0.02 0.03 0.03 0.03 0.03 0.02 0.02 0.02 0.02 0.01 0.01 0.01 0.01 0.00 0.01 0.01 0.01 0.01 0.00 0.00 0.00 0.00 0.00 0.00 0.00 0.00 0.00 0.01 0.01 0.02 0.02 0.02 0.03 0.03 0.03 0.04 0.04 0.06 0.07 0.09 0.11 0.12 0.10
0.02 0.02 0.02 0.02 0.01 0.01 0.01 0.01 0.01 0.01 0.01 0.01 0.01 0.01 0.00 0.01 0.01 0.01 0.01 0.01 0.00 0.00 0.00 0.00 0.00 0.00 0.00 0.01 0.02 0.02 0.02 0.02 0.02 0.03 0.03 0.04 0.05 0.07 0.08 0.08 0.11 0.15 0.14
0.01 0.01 0.01 0.01 0.01 0.01 0.00 0.00 0.00 0.00 0.00 0.00 0.00 0.00 0.00 0.00 0.01 0.01 0.01 0.01 0.01 0.00 0.00 0.00 0.00 0.00 0.01 0.01 0.02 0.03 0.03 0.03 0.03 0.03 0.03 0.04 0.05 0.07 0.08 0.09 0.11 0.14 0.16
0.01 0.01 0.01 0.01 0.00 0.00 0.00 0.00 0.00 0.00 0.00 0.00 0.00 0.00 0.00 0.00 0.01 0.01 0.01 0.01 0.01 0.00 0.00 0.00 0.01 0.01 0.01 0.02 0.02 0.02 0.03 0.04 0.04 0.04 0.04 0.04 0.05 0.07 0.08 0.09 0.12 0.13 0.15
0.00 0.00 0.00 0.00 0.00 0.00 0.01 0.01 0.00 0.00 0.00 0.00 0.00 0.00 0.00 0.00 0.01 0.01 0.02 0.02 0.02 0.01 0.01 0.01 0.01 0.01 0.01 0.01 0.01 0.02 0.03 0.05 0.05 0.06 0.07 0.07 0.07 0.08 0.08 0.09 0.11 0.13 0.15
0.00 0.00 0.01 0.01 0.01 0.00 0.00 0.00 0.00 0.00 0.00 0.00 0.00 0.00 0.00 0.00 0.01 0.01 0.02 0.02 0.02 0.02 0.01 0.01 0.01 0.01 0.01 0.01 0.01 0.03 0.05 0.06 0.07 0.08 0.09 0.08 0.09 0.09 0.10 0.10 0.11 0.12 0.14
0.00 0.00 0.00 0.00 0.00 0.00 0.00 0.00 0.00 0.00 0.00 0.00 0.00 0.00 0.00 0.00 0.00 0.01 0.01 0.02 0.03 0.02 0.02 0.01 0.01 0.01 0.01 0.00 0.01 0.04 0.08 0.11 0.09 0.09 0.09 0.09 0.10 0.12 0.10 0.10 0.11 0.12 0.15
0.00 0.01 0.01 0.00 0.00 0.00 0.00 0.00 0.00 0.00 0.00 0.00 0.00 0.00 0.00 0.00 0.01 0.01 0.02 0.03 0.03 0.03 0.03 0.02 0.02 0.02 0.01 0.02 0.02 0.03 0.09 0.11 0.11 0.12 0.13 0.11 0.12 0.13 0.14 0.14 0.14 0.15 0.13
0.01 0.01 0.00 0.00 0.00 0.00 0.00 0.00 0.00 0.00 0.00 0.00 0.00 0.00 0.00 0.00 0.01 0.01 0.02 0.03 0.04 0.04 0.04 0.03 0.03 0.03 0.03 0.04 0.04 0.02 0.05 0.07 0.08 0.11 0.12 0.12 0.15 0.16 0.14 0.17 0.19 0.18 0.18
0.01 0.00 0.00 0.00 0.00 0.00 0.00 0.00 0.00 0.00 0.00 0.00 0.00 0.00 0.01 0.01 0.01 0.02 0.02 0.03 0.05 0.06 0.05 0.06 0.05 0.05 0.04 0.04 0.03 0.03 0.02 0.05 0.07 0.09 0.10 0.11 0.16 0.17 0.17 0.16 0.17 0.16 0.17
0.00 0.00 0.00 0.00 0.00 0.00 0.00 0.00 0.00 0.00 0.00 0.00 0.00 0.01 0.01 0.01 0.03 0.03 0.03 0.04 0.06 0.08 0.08 0.07 0.08 0.07 0.07 0.05 0.04 0.03 0.03 0.04 0.05 0.06 0.08 0.09 0.14 0.19 0.19 0.15 0.12 0.12 0.12
0.00 0.00 0.00 0.00 0.00 0.00 0.00 0.00 0.00 0.00 0.00 0.00 0.01 0.01 0.01 0.02 0.03 0.04 0.06 0.07 0.09 0.11 0.12 0.10 0.09 0.09 0.08 0.06 0.04 0.03 0.04 0.06 0.06 0.08 0.08 0.10 0.11 0.13 0.11 0.10 0.09 0.08 0.06
0.00 0.00 0.00 0.00 0.00 0.00 0.00 0.00 0.00 0.01 0.01 0.01 0.01 0.01 0.01 0.02 0.02 0.04 0.07 0.09 0.12 0.16 0.17 0.15 0.12 0.11 0.11 0.09 0.05 0.04 0.05 0.07 0.09 0.09 0.10 0.10 0.08 0.07 0.07 0.06 0.07 0.06 0.04
0.00 0.00 0.00 0.00 0.00 0.00 0.00 0.00 0.01 0.01 0.01 0.01 0.01 0.02 0.02 0.02 0.02 0.05 0.07 0.10 0.14 0.20 0.23 0.22 0.19 0.16 0.14 0.11 0.07 0.04 0.05 0.07 0.10 0.10 0.08 0.07 0.06 0.05 0.05 0.04 0.04 0.03 0.02
0.00 0.00 0.00 0.00 0.00 0.00 0.00 0.01 0.01 0.01 0.02 0.02 0.02 0.02 0.02 0.02 0.03 0.06 0.08 0.09 0.14 0.21 0.27 0.28 0.26 0.21 0.17 0.14 0.10 0.06 0.04 0.05 0.06 0.06 0.06 0.05 0.03 0.03 0.03 0.02 0.01 0.01 0.00
0.00 0.00 0.00 0.00 0.00 0.00 0.01 0.01 0.01 0.01 0.02 0.02 0.02 0.02 0.02 0.02 0.04 0.06 0.08 0.10 0.13 0.20 0.27 0.30 0.29 0.27 0.23 0.17 0.11 0.06 0.03 0.03 0.04 0.04 0.04 0.04 0.02 0.01 0.01 0.01 0.00 0.00 0.00
0.00 0.00 0.00 0.00 0.00 0.01 0.01 0.01 0.01 0.02 0.02 0.02 0.02 0.02 0.02 0.03 0.05 0.07 0.09 0.11 0.13 0.17 0.25 0.31 0.30 0.30 0.26 0.19 0.13 0.07 0.03 0.02 0.02 0.02 0.02 0.02 0.01 0.00 0.00 0.00 0.00 0.00 0.00
0.00 0.00 0.01 0.01 0.01 0.01 0.01 0.01 0.02 0.03 0.03 0.03 0.03 0.03 0.03 0.04 0.06 0.09 0.10 0.10 0.11 0.14 0.21 0.28 0.30 0.30 0.25 0.20 0.15 0.10 0.05 0.02 0.02 0.01 0.01 0.01 0.00 0.00 0.00 0.00 0.00 0.00 0.00
MSLP
1008.36 1008.38 1008.41 1008.45 1008.55 1008.71 1008.95 1009.27 1009.66 1010.07 1010.46 1010.78 1011.00 1011.12 1011.12 1011.05 1010.93 1010.81 1010.71 1010.64 1010.60 1010.56 1010.51 1010.41 1010.27 1010.08 1009.86 1009.64 1009.45 1009.32 1009.26 1009.26 1009.30 1009.35 1009.37 1009.32 1009.19 1008.98 1008.71 1008.40 1008.11 1007.85 1007.67
1008.68 1008.66 1008.65 1008.66 1008.70 1008.81 1009.01 1009.28 1009.62 1009.99 1010.34 1010.64 1010.86 1010.98 1011.00 1010.94 1010.85 1010.75 1010.68 1010.63 1010.61 1010.59 1010.54 1010.45 1010.30 1010.08 1009.83 1009.56 1009.32 1009.12 1008.98 1008.90 1008.86 1008.83 1008.77 1008.66 1008.47 1008.20 1007.88 1007.52 1007.18 1006.89 1006.68
1009.12 1009.08 1009.04 1009.01 1009.01 1009.06 1009.18 1009.38 1009.65 1009.95 1010.25 1010.51 1010.70 1010.81 1010.84 1010.82 1010.77 1010.71 1010.68 1010.68 1010.69 1010.70 1010.68 1010.60 1010.45 1010.22 1009.94 1009.63 1009.32 1009.05 1008.83 1008.66 1008.52 1008.40 1008.25 1008.06 1007.80 1007.48 1007.11 1006.71 1006.34 1006.01 1005.77
1009.66 1009.61 1009.56 1009.49 1009.44 1009.43 1009.48 1009.59 1009.76 1009.97 1010.19 1010.39 1010.54 1010.64 1010.68 1010.68 1010.67 1010.67 1010.69 1010.74 1010.80 1010.85 1010.87 1010.81 1010.67 1010.45 1010.16 1009.82 1009.47 1009.13 1008.83 1008.57 1008.34 1008.12 1007.88 1007.60 1007.28 1006.89 1006.48 1006.05 1005.65 1005.30 1005.04
1010.28 1010.23 1010.17 1010.08 1009.99 1009.91 1009.87 1009.88 1009.95 1010.05 1010.18 1010.30 1010.40 1010.46 1010.50 1010.52 1010.54 1010.58 1010.65 1010.75 1010.86 1010.95 1011.01 1010.99 1010.88 1010.68 1010.40 1010.05 1009.68 1009.31 1008.95 1008.61 1008.29 1007.98 1007.65 1007.29 1006.89 1006.46 1006.00 1005.55 1005.13 1004.77 1004.50
1010.93 1010.90 1010.84 1010.73 1010.60 1010.46 1010.34 1010.25 1010.21 1010.20 1010.22 1010.25 1010.28 1010.30 1010.31 1010.32 1010.36 1010.42 1010.52 1010.64 1010.78 1010.91 1011.00 1011.02 1010.95 1010.79 1010.55 1010.23 1009.87 1009.48 1009.09 1008.70 1008.31 1007.91 1007.50 1007.06 1006.60 1006.11 1005.63 1005.17 1004.75 1004.39 1004.12
1011.61 1011.59 1011.53 1011.41 1011.24 1011.05 1010.85 1010.67 1010.52 1010.40 1010.32 1010.25 1010.19 1010.15 1010.11 1010.09 1010.10 1010.15 1010.24 1010.36 1010.51 1010.65 1010.76 1010.82 1010.80 1010.69 1010.50 1010.24 1009.91 1009.54 1009.14 1008.71 1008.26 1007.79 1007.30 1006.79 1006.26 1005.74 1005.24 1004.78 1004.38 1004.07 1003.84
1012.27 1012.27 1012.21 1012.07 1011.88 1011.64 1011.37 1011.11 1010.87 1010.65 1010.46 1010.29 1010.14 1010.01 1009.90 1009.82 1009.77 1009.77 1009.81 1009.89 1010.01 1010.14 1010.26 1010.34 1010.36 1010.31 1010.19 1009.98 1009.71 1009.37 1008.98 1008.53 1008.03 1007.50 1006.93 1006.34 1005.76 1005.20 1004.69 1004.26 1003.92 1003.68 1003.53
1012.91 1012.91 1012.84 1012.69 1012.46 1012.18 1011.87 1011.54 1011.22 1010.91 1010.63 1010.37 1010.12 1009.90 1009.69 1009.52 1009.39 1009.29 1009.26 1009.27 1009.33 1009.41 1009.51 1009.60 1009.65 1009.66 1009.59 1009.46 1009.24 1008.94 1008.55 1008.08 1007.53 1006.93 1006.28 1005.62 1004.98 1004.39 1003.89 1003.50 1003.25 1003.12 1003.11
1013.49 1013.48 1013.39 1013.21 1012.96 1012.65 1012.29 1011.92 1011.54 1011.16 1010.80 1010.46 1010.12 1009.80 1009.50 1009.22 1008.98 1008.78 1008.64 1008.56 1008.53 1008.56 1008.62 1008.69 1008.76 1008.80 1008.79 1008.71 1008.54 1008.26 1007.87 1007.37 1006.77 1006.08 1005.35 1004.61 1003.91 1003.29 1002.80 1002.48 1002.33 1002.35 1002.52
1014.00 1013.95 1013.83 1013.62 1013.34 1013.00 1012.62 1012.21 1011.79 1011.37 1010.95 1010.54 1010.13 1009.73 1009.33 1008.95 1008.61 1008.30 1008.05 1007.87 1007.75 1007.70 1007.71 1007.76 1007.83 1007.89 1007.91 1007.86 1007.71 1007.44 1007.04 1006.49 1005.82 1005.05 1004.22 1003.39 1002.62 1001.98 1001.51 1001.25 1001.22 1001.40 1001.77
1014.40 1014.30 1014.13 1013.89 1013.58 1013.22 1012.82 1012.39 1011.95 1011.50 1011.05 1010.60 1010.13 1009.66 1009.19 1008.73 1008.30 1007.90 1007.56 1007.28 1007.08 1006.97 1006.92 1006.94 1007.00 1007.06 1007.09 1007.05 1006.91 1006.64 1006.20 1005.60 1004.85 1003.99 1003.07 1002.16 1001.32 1000.64 1000.19 999.99 1000.07 1000.42 1000.99
1014.67 1014.51 1014.28 1014.00 1013.66 1013.28 1012.87 1012.44 1012.00 1011.54 1011.07 1010.59 1010.09 1009.58 1009.07 1008.56 1008.06 1007.60 1007.20 1006.86 1006.60 1006.43 1006.34 1006.33 1006.37 1006.42 1006.45 1006.41 1006.26 1005.97 1005.50 1004.85 1004.04 1003.10 1002.10 1001.12 1000.23 999.52 999.07 998.93 999.10 999.57 1000.31
1014.79 1014.55 1014.26 1013.94 1013.57 1013.18 1012.77 1012.35 1011.90 1011.45 1010.98 1010.49 1009.99 1009.47 1008.94 1008.40 1007.89 1007.40 1006.96 1006.59 1006.30 1006.10 1005.99 1005.95 1005.97 1006.01 1006.03 1005.99 1005.83 1005.53 1005.04 1004.37 1003.52 1002.54 1001.50 1000.47 999.55 998.83 998.38 998.27 998.50 999.05 999.89
1014.72 1014.41 1014.07 1013.71 1013.33 1012.93 1012.52 1012.10 1011.67 1011.22 1010.76 1010.28 1009.78 1009.27 1008.75 1008.22 1007.71 1007.23 1006.80 1006.43 1006.14 1005.93 1005.80 1005.75 1005.76 1005.79 1005.81 1005.77 1005.62 1005.33 1004.85 1004.19 1003.36 1002.40 1001.36 1000.34 999.43 998.71 998.27 998.16 998.41 999.00 999.87
1014.46 1014.09 1013.71 1013.32 1012.92 1012.52 1012.12 1011.70 1011.28 1010.85 1010.40 1009.93 1009.45 1008.95 1008.46 1007.96 1007.48 1007.03 1006.63 1006.28 1006.00 1005.79 1005.67 1005.62 1005.62 1005.65 1005.68 1005.66 1005.54 1005.30 1004.89 1004.30 1003.54 1002.65 1001.70 1000.74 999.88 999.19 998.78 998.67 998.90 999.46 1000.29
1014.02 1013.60 1013.19 1012.78 1012.38 1011.98 1011.57 1011.17 1010.75 1010.32 1009.88 1009.43 1008.97 1008.50 1008.03 1007.57 1007.13 1006.73 1006.36 1006.04 1005.78 1005.59 1005.47 1005.42 1005.43 1005.48 1005.52 1005.54 1005.49 1005.33 1005.03 1004.57 1003.96 1003.22 1002.40 1001.57 1000.82 1000.20 999.82 999.71 999.90 1000.38 1001.12
1013.41 1012.96 1012.53 1012.11 1011.71 1011.31 1010.91 1010.50 1010.09 1009.66 1009.23 1008.78 1008.34 1007.89 1007.45 1007.03 1006.63 1006.26 1005.93 1005.64 1005.40 1005.22 1005.11 1005.07 1005.09 1005.15 1005.24 1005.32 1005.35 1005.31 1005.16 1004.88 1004.46 1003.93 1003.31 1002.67 1002.06 1001.55 1001.23 1001.12 1001.26 1001.64 1002.24
1012.66 1012.20 1011.75 1011.34 1010.93 1010.54 1010.14 1009.73 1009.32 1008.89 1008.46 1008.02 1007.58 1007.16 1006.75 1006.35 1005.98 1005.64 1005.33 1005.06 1004.84 1004.67 1004.57 1004.53 1004.55 1004.64 1004.77 1004.92 1005.06 1005.16 1005.18 1005.10 1004.91 1004.61 1004.22 1003.79 1003.36 1003.00 1002.74 1002.65 1002.74 1003.02 1003.48
1011.82 1011.35 1010.90 1010.49 1010.08 1009.69 1009.29 1008.88 1008.46 1008.04 1007.61 1007.18 1006.75 1006.35 1005.95 1005.58 1005.24 1004.92 1004.62 1004.36 1004.15 1003.98 1003.87 1003.84 1003.88 1003.99 1004.16 1004.38 1004.63 1004.86 1005.05 1005.17 1005.20 1005.13 1004.98 1004.77 1004.53 1004.30 1004.14 1004.08 1004.14 1004.33 1004.66
1010.92 1010.45 1010.01 1009.59 1009.18 1008.78 1008.38 1007.97 1007.56 1007.14 1006.72 1006.30 1005.90 1005.51 1005.14 1004.79 1004.46 1004.15 1003.87 1003.61 1003.40 1003.23 1003.12 1003.09 1003.14 1003.28 1003.50 1003.78 1004.11 1004.46 1004.79 1005.07 1005.29 1005.43 1005.48 1005.46 1005.39 1005.30 1005.23 1005.22 1005.27 1005.41 1005.64
1010.02 1009.54 1009.09 1008.66 1008.25 1007.85 1007.44 1007.04 1006.63 1006.23 1005.83 1005.44 1005.06 1004.70 1004.35 1004.02 1003.71 1003.41 1003.14 1002.89 1002.68 1002.52 1002.42 1002.40 1002.47 1002.63 1002.88 1003.21 1003.60 1004.03 1004.46 1004.86 1005.21 1005.49 1005.69 1005.82 1005.89 1005.92 1005.94 1005.97 1006.04 1006.16 1006.34
1009.13 1008.65 1008.18 1007.74 1007.31 1006.90 1006.49 1006.10 1005.71 1005.33 1004.97 1004.61 1004.27 1003.94 1003.62 1003.32 1003.03 1002.74 1002.48 1002.25 1002.05 1001.91 1001.83 1001.83 1001.92 1002.11 1002.39 1002.75 1003.18 1003.65 1004.12 1004.58 1005.00 1005.36 1005.65 1005.87 1006.03 1006.15 1006.24 1006.33 1006.44 1006.57 1006.75
1008.30 1007.79 1007.30 1006.83 1006.39 1005.96 1005.55 1005.17 1004.80 1004.46 1004.13 1003.82 1003.53 1003.24 1002.95 1002.68 1002.41 1002.14 1001.90 1001.69 1001.52 1001.41 1001.36 1001.40 1001.53 1001.75 1002.06 1002.44 1002.87 1003.35 1003.83 1004.29 1004.72 1005.09 1005.41 1005.67 1005.88 1006.05 1006.20 1006.35 1006.51 1006.69 1006.90
1007.52 1006.98 1006.45 1005.95 1005.47 1005.03 1004.62 1004.25 1003.92 1003.61 1003.33 1003.07 1002.81 1002.56 1002.31 1002.06 1001.81 1001.57 1001.35 1001.17 1001.03 1000.96 1000.97 1001.06 1001.24 1001.50 1001.83 1002.23 1002.66 1003.12 1003.57 1004.00 1004.39 1004.74 1005.04 1005.30 1005.52 1005.73 1005.93 1006.13 1006.36 1006.61 1006.88
1006.80 1006.21 1005.64 1005.09 1004.58 1004.12 1003.71 1003.35 1003.04 1002.77 1002.53 1002.31 1002.09 1001.87 1001.64 1001.41 1001.18 1000.96 1000.76 1000.61 1000.51 1000.49 1000.56 1000.71 1000.94 1001.25 1001.62 1002.03 1002.46 1002.89 1003.31 1003.68 1004.02 1004.32 1004.59 1004.82 1005.05 1005.28 1005.53 1005.80 1006.09 1006.42 1006.77
Thickness
5805 5805 5803 5801 5796 5790 5785 5780 5775 5771 5768 5765 5762 5758 5756 5755 5754 5753 5749 5746 5744 5742 5741 5741 5740 5739 5738 5737 5736 5734 5732 5731 5729 5724 5725 5728 5732 5733 5734 5735 5736 5738 5739
5792 5792 5792 5790 5787 5781 5777 5772 5768 5765 5762 5759 5755 5751 5749 5749 5748 5746 5742 5740 5738 5736 5738 5735 5734 5735 5732 5731 5731 5729 5727 5728 5727 5720 5717 5719 5725 5730 5735 5734 5733 5735 5737
5782 5781 5779 5777 5775 5771 5767 5765 5761 5757 5755 5752 5749 5745 5742 5741 5741 5739 5737 5735 5732 5731 5729 5728 5728 5727 5727 5727 5725 5723 5722 5721 5723 5721 5715 5713 5718 5726 5732 5733 5733 5734 5735
5774 5771 5768 5765 5763 5761 5760 5756 5752 5749 5746 5744 5742 5738 5733 5732 5732 5730 5731 5729 5727 5725 5724 5722 5721 5720 5721 5720 5719 5721 5718 5715 5716 5717 5717 5716 5718 5713 5719 5727 5731 5732 5732
5764 5760 5757 5755 5754 5753 5751 5748 5744 5741 5739 5736 5733 5730 5729 5729 5729 5727 5724 5721 5723 5720 5719 5716 5715 5714 5714 5713 5711 5710 5710 5711 5710 5711 5713 5713 5712 5712 5711 5715 5723 5727 5730
5751 5748 5747 5745 5744 5743 5742 5739 5735 5732 5732 5729 5727 5724 5722 5721 5720 5718 5718 5718 5719 5717 5715 5712 5709 5708 5708 5707 5705 5704 5704 5704 5704 5704 5706 5707 5708 5711 5711 5712 5716 5719 5724
5737 5735 5733 5732 5730 5729 5729 5728 5726 5724 5724 5723 5721 5720 5718 5716 5714 5713 5715 5712 5713 5712 5710 5707 5703 5702 5701 5700 5699 5699 5699 5698 5697 5698 5700 5703 5706 5708 5709 5709 5712 5714 5717
5725 5723 5721 5720 5718 5718 5717 5716 5715 5714 5714 5714 5713 5713 5712 5712 5713 5711 5709 5708 5707 5707 5704 5700 5698 5696 5696 5695 5695 5695 5695 5694 5693 5694 5694 5696 5700 5703 5705 5706 5706 5705 5708
5713 5711 5710 5708 5707 5705 5704 5704 5702 5702 5702 5703 5703 5704 5704 5703 5704 5703 5702 5703 5701 5700 5698 5694 5692 5691 5690 5689 5688 5689 5688 5689 5689 5690 5690 5690 5694 5696 5699 5702 5702 5698 5697
5703 5700 5699 5697 5696 5695 5693 5692 5690 5689 5689 5691 5692 5695 5695 5695 5695 5696 5696 5695 5694 5692 5690 5688 5687 5685 5685 5684 5683 5684 5684 5683 5684 5684 5684 5685 5688 5690 5692 5694 5696 5696 5694
5691 5688 5686 5685 5684 5683 5681 5679 5678 5677 5677 5678 5679 5680 5682 5683 5685 5686 5687 5687 5686 5685 5683 5682 5680 5680 5679 5679 5678 5678 5677 5677 5678 5679 5680 5681 5681 5683 5686 5688 5689 5690 5688
5679 5677 5674 5671 5669 5667 5666 5665 5664 5663 5664 5665 5666 5667 5668 5670 5673 5675 5676 5677 5677 5677 5677 5676 5674 5673 5673 5672 5671 5671 5672 5671 5672 5673 5674 5675 5676 5676 5678 5680 5681 5682 5682
5665 5662 5658 5655 5652 5651 5650 5650 5651 5650 5650 5651 5652 5653 5654 5656 5659 5662 5664 5665 5666 5668 5668 5668 5667 5666 5666 5665 5665 5664 5664 5665 5666 5666 5667 5669 5669 5669 5671 5671 5673 5673 5673
5649 5646 5641 5639 5637 5636 5636 5636 5636 5636 5636 5636 5637 5638 5640 5642 5644 5648 5650 5652 5654 5656 5658 5658 5659 5659 5659 5658 5657 5656 5656 5656 5658 5658 5660 5661 5662 5662 5664 5664 5664 5664 5662
5632 5629 5626 5625 5623 5622 5622 5621 5621 5620 5620 5620 5621 5622 5625 5627 5629 5631 5635 5638 5640 5643 5646 5647 5648 5650 5650 5650 5648 5648 5648 5648 5649 5650 5651 5652 5652 5653 5655 5657 5656 5655 5652
5619 5617 5615 5613 5611 5609 5607 5606 5604 5603 5602 5602 5603 5605 5606 5609 5611 5614 5618 5622 5625 5628 5632 5635 5637 5639 5641 5637 5635 5636 5638 5639 5640 5641 5642 5642 5642 5642 5643 5644 5645 5645 5644
5609 5606 5602 5599 5596 5594 5591 5588 5586 5585 5584 5583 5584 5586 5588 5590 5593 5596 5600 5603 5608 5612 5616 5620 5623 5626 5628 5625 5624 5624 5628 5630 5631 5631 5631 5632 5632 5633 5634 5633 5633 5632 5632
5596 5591 5587 5583 5580 5577 5573 5570 5568 5566 5564 5564 5565 5567 5568 5571 5573 5576 5580 5585 5590 5595 5600 5605 5609 5613 5616 5613 5613 5614 5619 5621 5621 5621 5621 5621 5622 5622 5624 5625 5623 5621 5619
5580 5575 5570 5565 5561 5557 5553 5550 5548 5546 5545 5546 5547 5548 5549 5551 5554 5557 5562 5567 5573 5579 5585 5591 5596 5600 5603 5602 5603 5603 5610 5611 5611 5612 5612 5612 5612 5609 5612 5614 5611 5609 5606
5564 5558 5553 5548 5544 5541 5537 5534 5532 5531 5530 5531 5531 5532 5533 5534 5537 5541 5546 5552 5558 5564 5571 5578 5584 5589 5593 5593 5594 5594 5602 5603 5604 5603 5602 5601 5601 5599 5601 5604 5603 5601 5600
5549 5544 5540 5536 5533 5530 5526 5524 5523 5522 5521 5521 5521 5521 5522 5524 5527 5531 5535 5540 5545 5552 5558 5565 5571 5578 5583 5584 5585 5586 5594 5598 5597 5597 5596 5593 5590 5591 5592 5595 5596 5594 5595
5538 5534 5530 5529 5526 5524 5521 5520 5518 5518 5517 5516 5516 5516 5517 5520 5524 5526 5529 5532 5535 5540 5547 5554 5561 5567 5572 5576 5576 5578 5581 5588 5591 5591 5591 5586 5581 5582 5584 5586 5584 5586 5590
5531 5528 5525 5524 5523 5520 5518 5516 5516 5514 5513 5513 5513 5513 5514 5516 5518 5521 5524 5526 5529 5534 5539 5546 5552 5558 5563 5567 5568 5568 5572 5577 5583 5584 5580 5576 5573 5573 5576 5575 5578 5581 5587
5526 5524 5522 5520 5519 5516 5514 5513 5512 5511 5510 5510 5510 5511 5512 5515 5517 5518 5520 5522 5525 5528 5531 5538 5543 5549 5555 5560 5562 5563 5564 5566 5571 5572 5568 5566 5567 5571 5570 5571 5575 5582 5585
5522 5519 5517 5515 5514 5512 5510 5509 5508 5506 5506 5506 5507 5509 5510 5512 5512 5514 5514 5516 5518 5521 5522 5529 5535 5542 5549 5556 5559 5562 5564 5567 5570 5568 5568 5569 5570 5572 5573 5575 5577 5579 5580
5516 5514 5511 5509 5508 5507 5506 5505 5503 5501 5501 5501 5503 5504 5506 5508 5508 5509 5511 5512 5512 5513 5514 5517 5523 5534 5541 5546 5550 5555 5560 5561 5562 5566 5570 5572 5574 5575 5576 5576 5576 5578 5579